Weather in Ugut

Russia / Khanty-Mansi Autonomous Okrug — Yugra     60°30′31″N   74°03′15″E
temp.,
°C
wind,
m/s
gust,
m/s
humid.,
%
clouds,
%
prec.,
mm/h
press.,
hPa
HPBL,
m
6 march, sat
sat623:00−9sse249784 0.0 99897
02:00−9sse2496100 0.2 997127
05:00−11s2297100 0.6 99662
08:00−12ssw129796 0.1 99534
11:00−7wsw129298 0.1 994272
14:00−6w2389100 0.1 995562
17:00−6wsw2496100 0.4 996215
20:00−8wnw2497100 0.7 998137
7 march, sun
sun723:00−10w3696100 1.1 999185
02:00−12w2696100 0.3 1001209
05:00−14w249798 0.4 1004125
08:00−13wsw2695100 0.2 1005318
11:00−10wsw3690100 0.3 1007573
14:00−10sw4690100 0.1 1009563
17:00−12sw3694100 0.2 1011305
20:00−16ssw229889 0.0 101121
8 march, mon
mon823:00−17s129989 0.1 101120
02:00−16ese2297100 0.0 100836
05:00−16ene2697100 0.0 1006143
08:00−13ne4795100 0.5 1001266
11:00−11nne4994100 1.7 997449
14:00−10nnw5993100 1.0 997640
17:00−12nw51190100 1.4 1000672
20:00−17wnw41094100 0.1 1004368
9 march, tue
tue923:00−20w399798 0.1 1007223
02:00−23wsw239942 0.0 100963
05:00−23sw239870 0.0 101156
08:00−21sw2497100 0.0 1012161
11:00−16s238995 0.0 1012333
14:00−12se3589100 0.1 1011565
17:00−10se4893100 0.3 1008609
20:00−10se4995100 0.9 1005594
10 march, wed
wed1023:00−10s3995100 1.3 1003411
02:00−10se2696100 0.2 1000178
05:00−9s1497100 1.5 998188
08:00−8wsw3795100 1.4 998454
11:00−11wsw5893100 1.8 1001465
14:00−10wnw5791100 0.2 1005560
17:00−17wnw3695100 0.3 1007307
20:00−23nw229874 0.0 100820